Location: Ca�n Batista
(41.4099°N, 1.7752°E)
Time: 13:50:16
(UTC+00:00)

Meteor 2-12 Rocket - Pass Details

Date: 03 March 2021
Orbit: 936 x 957 km, 82.5° (Epoch: 21 April)

Event Time Altitude Azimuth Distance (km) Brightness Sun altitude
Rises 18:47:43 0° 184° (S) 3,581 7.5 -12.4°
Reaches altitude 10° 18:50:11 10° 184° (S) 2,643 6.8 -12.8°
Maximum altitude 18:56:13 85° 98° (E) 951 4.4 -13.9°
Drops below altitude 10° 19:02:21 10° 9° (N) 2,673 6.8 -15.1°
Sets 19:04:51 0° 9° (N) 3,625 7.5 -15.6°
